Orange, MA

8:50 PM EDT on October 19, 2017 (GMT -0400)
Orange Municipal

Weather History for KORE - January, 2014

Change the Weather History Date:

Saturday, January 25, 2014

  Actual Average Record
Temperature  
Mean Temperature 20 °F -  
Max Temperature 28 °F 27 °F 43 °F (1997)
Min Temperature 12 °F 7 °F -9 °F (2003)
Degree Days  
Heating Degree Days 45    
Moisture  
Dew Point 14 °F    
Average Humidity 72    
Maximum Humidity 89    
Minimum Humidity 47    
Precipitation  
Precipitation 0.03 in - - ()
Sea Level Pressure  
Sea Level Pressure 29.52 in    
Wind  
Wind Speed 13 mph (SSW)    
Max Wind Speed 22 mph    
Max Gust Speed 29 mph    
Visibility 5 miles    
Events Fog , Snow    
Averages and records for this station are not official NWS values.
T = Trace of Precipitation, MM = Missing Value Source: NWS Daily Summary

Daily Weather History Graph

Daily Weather History Graph

Search for Another Location

Airport or City:

Trip Planner

Search our weather history database for the weather conditions in past years. The results will help you decide how hot, cold, wet, or windy it might be!

Date:

Astronomy

Jan. 25, 2014 Rise Set
Actual Time 7:09 AM EST 4:53 PM EST
Civil Twilight 6:39 AM EST 5:24 PM EST
Nautical Twilight 6:05 AM EST 5:58 PM EST
Astronomical Twilight 5:31 AM EST 6:31 PM EST
Moon 1:38 AM EST (1/25) 11:52 AM EST (1/25)
Length of Visible Light 10h 44m
Length of Day
9h 43m
Waning Crescent, 34% of the Moon is Illuminated
Jan 25
Waning Crescent
Jan 30
New
Feb 6
First Quarter
Feb 14
Full
Feb 22
Last Quarter

Hourly Weather History & Observations

Time (EST) Temp. Windchill Dew Point Humidity Pressure Visibility Wind Dir Wind Speed Gust Speed Precip Events Conditions
12:52 AM 12.9 °F -2.2 °F -2.0 °F 51% 29.97 in 10.0 mi South 13.8 mph - N/A   Scattered Clouds
1:52 AM 12.9 °F 0.7 °F -2.0 °F 51% 29.94 in 10.0 mi South 9.2 mph - N/A   Mostly Cloudy
2:52 AM 14.0 °F 1.2 °F -2.9 °F 47% 29.91 in 10.0 mi South 10.4 mph 19.6 mph N/A   Overcast
3:52 AM 12.9 °F 0.7 °F -2.0 °F 51% 29.88 in 10.0 mi South 9.2 mph - N/A   Partly Cloudy
4:52 AM 12.9 °F 2.6 °F 1.0 °F 59% 29.85 in 10.0 mi South 6.9 mph 17.3 mph N/A   Clear
5:52 AM 15.1 °F -1.6 °F 1.9 °F 56% 29.82 in 10.0 mi SSW 18.4 mph 21.9 mph N/A   Clear
6:52 AM 16.0 °F 0.1 °F 1.9 °F 54% 29.78 in 10.0 mi SSW 17.3 mph 25.3 mph N/A   Clear
7:52 AM 18.0 °F 2.2 °F 3.9 °F 54% 29.75 in 10.0 mi South 18.4 mph 25.3 mph N/A   Clear
8:52 AM 19.9 °F 7.3 °F 6.1 °F 55% 29.73 in 10.0 mi SSW 12.7 mph - N/A   Clear
9:52 AM 23.0 °F 10.1 °F 8.1 °F 53% 29.70 in 10.0 mi SSW 15.0 mph 28.8 mph N/A   Mostly Cloudy
10:52 AM 24.1 °F 11.5 °F 9.0 °F 53% 29.67 in 10.0 mi SSW 15.0 mph 27.6 mph N/A   Overcast
11:52 AM 27.0 °F 15.6 °F 10.0 °F 49% 29.59 in 10.0 mi SSW 13.8 mph 23.0 mph N/A   Scattered Clouds
12:52 PM 28.0 °F 14.9 °F 12.9 °F 53% 29.54 in 10.0 mi South 19.6 mph 27.6 mph N/A   Overcast
1:52 PM 28.9 °F 16.5 °F 16.0 °F 58% 29.48 in 10.0 mi SSW 18.4 mph 28.8 mph N/A   Overcast
2:18 PM 28.0 °F 14.3 °F 17.1 °F 63% 29.45 in 2.0 mi SW 21.9 mph 27.6 mph 0.00 in Snow Light Snow
2:21 PM 28.0 °F 15.3 °F 18.0 °F 66% 29.45 in 1.2 mi SW 18.4 mph 27.6 mph 0.00 in Snow Light Snow
2:27 PM 27.0 °F 13.2 °F 19.0 °F 72% 29.46 in 0.8 mi SW 20.7 mph 28.8 mph 0.00 in Snow Light Snow
2:48 PM 26.6 °F 16.8 °F 21.2 °F 80% 29.45 in 0.5 mi SW 10.4 mph - 0.00 in Fog , Snow Snow
2:52 PM 26.1 °F 16.2 °F 21.9 °F 84% 29.47 in 0.5 mi SW 10.4 mph - 0.00 in Fog , Snow Snow
3:36 PM 26.1 °F 16.8 °F 21.9 °F 84% 29.42 in 1.0 mi SSW 9.2 mph - 0.00 in Snow Light Snow
3:52 PM 25.0 °F 13.6 °F 21.0 °F 85% 29.44 in 0.8 mi SW 12.7 mph - 0.00 in Snow Light Snow
4:32 PM 24.1 °F 13.7 °F 19.9 °F 84% 29.40 in 0.5 mi SSW 10.4 mph - 0.00 in Fog , Snow Snow
4:52 PM 24.1 °F 12.0 °F 19.9 °F 84% 29.42 in 0.8 mi SSW 13.8 mph - 0.01 in Snow Light Snow
5:00 PM 24.1 °F 13.1 °F 19.9 °F 84% 29.39 in 1.2 mi SSW 11.5 mph - 0.00 in Snow Light Snow
5:08 PM 24.1 °F 13.1 °F 19.9 °F 84% 29.39 in 1.8 mi SSW 11.5 mph - 0.00 in Snow Light Snow
5:39 PM 23.0 °F 11.7 °F 19.9 °F 88% 29.38 in 1.2 mi South 11.5 mph - 0.00 in Snow Light Snow
5:48 PM 23.0 °F 13.9 °F 19.4 °F 86% 29.37 in 1.0 mi South 8.1 mph - 0.00 in Snow Light Snow
5:52 PM 23.0 °F 13.1 °F 19.9 °F 88% 29.41 in 1.0 mi South 9.2 mph - 0.00 in Snow Light Snow
6:48 PM 23.0 °F 12.4 °F 19.4 °F 86% 29.37 in 1.2 mi South 10.4 mph - 0.02 in Snow Light Snow
6:52 PM 23.0 °F 13.9 °F 19.9 °F 88% 29.39 in 1.0 mi South 8.1 mph - 0.02 in Snow Light Snow
7:05 PM 23.0 °F 12.4 °F 19.0 °F 85% 29.37 in 1.2 mi South 10.4 mph - 0.00 in Snow Light Snow
7:16 PM 21.9 °F 11.7 °F 19.0 °F 89% 29.36 in 1.8 mi South 9.2 mph - 0.00 in Snow Light Snow
7:25 PM 21.9 °F 12.5 °F 19.0 °F 89% 29.35 in 2.0 mi South 8.1 mph - 0.00 in Snow Light Snow
7:34 PM 21.9 °F 12.5 °F 19.0 °F 89% 29.35 in 3.0 mi South 8.1 mph - 0.00 in Snow Light Snow
7:52 PM 21.9 °F 11.0 °F 17.1 °F 82% 29.37 in 7.0 mi SSW 10.4 mph - 0.00 in   Overcast
8:52 PM 21.9 °F 11.0 °F 16.0 °F 78% 29.38 in 6.0 mi SW 10.4 mph - 0.00 in Snow Light Snow
9:29 PM 21.0 °F 11.4 °F 16.0 °F 81% 29.34 in 5.0 mi SW 8.1 mph - 0.00 in Snow Light Snow
9:52 PM 21.0 °F 11.4 °F 16.0 °F 81% 29.36 in 5.0 mi SW 8.1 mph - 0.00 in Snow Light Snow
10:52 PM 19.9 °F 12.1 °F 15.1 °F 81% 29.36 in 10.0 mi SSW 5.8 mph - 0.00 in   Mostly Cloudy
11:52 PM 18.0 °F 8.7 °F 12.9 °F 81% 29.36 in 10.0 mi South 6.9 mph - N/A   Clear